Location: Burera
(21.3780°N, 81.9534°E)
Time: 00:04:04
(UTC+00:00)

SEDSat Delta rocket - Pass Details

Date: 13 August 2020
Orbit: 533 x 1000 km, 31.4° (Epoch: 22 September)

Event Time Altitude Azimuth Distance (km) Brightness Sun altitude
Exits shadow 23:20:01 15° 237° (WSW) 2,343 5.4 -12.0°
Maximum altitude 23:25:39 78° 153° (SSE) 1,010 4.1 -10.7°
Drops below altitude 10° 23:32:27 10° 68° (ENE) 2,755 8.1 -9.2°
Sets 23:35:08 0° 67° (ENE) 3,688 9.5 -8.6°
